Location: Obersdorf
(47.4079°N, 10.2781°E)
Time: 04:21:23
(UTC+02:00)

COSMOS 2251 DEB - Pass Details

Date: 03 July 2022
Orbit: 490 x 568 km, 73.9° (Epoch: 16 August)

Event Time Altitude Azimuth Distance (km) Brightness Sun altitude
Exits shadow 04:00:09 -1° 159° (SSE) 2,836 ? -11.3°
Rises 04:00:21 0° 158° (SSE) 2,761 ? -11.2°
Reaches altitude 10° 04:03:14 10° 137° (SE) 1,859 ? -10.9°
Maximum altitude 04:05:49 16° 99° (E) 1,493 ? -10.7°
Drops below altitude 10° 04:08:22 10° 60° (ENE) 1,841 ? -10.4°
Sets 04:11:11 0° 39° (NE) 2,723 ? -10.1°
